Triuchirapalli, India

12:52 AM IST on November 19, 2019 (GMT +0530)
Tiruchirappalli

Weather History for VOTR - October, 2019

Change the Weather History Date:

Monday, October 21, 2019

  Actual Average Record
Temperature  
Mean Temperature 82 °F -  
Max Temperature 88 °F 84 °F 94 °F (2017)
Min Temperature 77 °F 75 °F 72 °F (2013)
Cooling Degree Days 18    
Growing Degree Days 32 (Base 50)    
Moisture  
Dew Point 76 °F    
Average Humidity 87    
Maximum Humidity 100    
Minimum Humidity 63    
Precipitation  
Precipitation 0.00 in - - ()
Sea Level Pressure  
Sea Level Pressure 29.80 in    
Wind  
Wind Speed 3 mph ()    
Max Wind Speed 9 mph    
Max Gust Speed -    
Visibility 2.3 miles    
Events Rain , Thunderstorm    
Averages and records for this station are not official NWS values.
T = Trace of Precipitation, MM = Missing Value Source: Averaged Metar Reports

Daily Weather History Graph

Daily Weather History Graph

Search for Another Location

Airport or City:

Astronomy

Oct. 21, 2019 Rise Set
Actual Time 6:04 AM IST 5:54 PM IST
Civil Twilight 5:43 AM IST 6:16 PM IST
Nautical Twilight 5:18 AM IST 6:41 PM IST
Astronomical Twilight 4:53 AM IST 7:05 PM IST
Moon 12:14 AM IST (10/22) 12:21 PM IST (10/21)
Length of Visible Light 12h 33m
Length of Day
11h 50m
Waning Gibbous, 53% of the Moon is Illuminated
Oct 21
Waning Gibbous
Oct 21
Last Quarter
Oct 28
New
Nov 4
First Quarter
Nov 12
Full

Hourly Weather History & Observations

Time (IST) Temp. Heat Index Dew Point Humidity Pressure Visibility Wind Dir Wind Speed Gust Speed Precip Events Conditions
12:00 AM 78.8 °F - 77.0 °F 94% 29.83 in 3.1 mi Calm Calm - N/A   Mostly Cloudy
12:30 AM 78.8 °F - 77.0 °F 94% 29.83 in 3.1 mi NNE 3.5 mph - N/A   Mostly Cloudy
1:00 AM 78.8 °F - 75.2 °F 89% 29.80 in 3.1 mi North 2.3 mph - N/A   Mostly Cloudy
1:30 AM 77.0 °F - 77.0 °F 100% 29.80 in 3.1 mi NNE 3.5 mph - N/A   Mostly Cloudy
2:00 AM 77.0 °F - 77.0 °F 100% 29.80 in 3.1 mi NE 2.3 mph - N/A   Mostly Cloudy
2:30 AM 78 °F - 76 °F 94% 29.78 in 2 mi NE 4.6 mph - -   Mist
2:30 AM 78.8 °F - 77.0 °F 94% 29.77 in 3.1 mi NE 4.6 mph - N/A   Mostly Cloudy
3:00 AM 78.8 °F - 77.0 °F 94% 29.77 in 3.1 mi NE 4.6 mph - N/A   Mostly Cloudy
3:30 AM 77.0 °F - 77.0 °F 100% 29.77 in 3.1 mi NE 4.6 mph - N/A   Mostly Cloudy
4:00 AM 77.0 °F - 77.0 °F 100% 29.77 in 3.1 mi NE 4.6 mph - N/A   Mostly Cloudy
4:30 AM 77.0 °F - 77.0 °F 100% 29.77 in 3.1 mi Calm Calm - N/A   Mostly Cloudy
5:00 AM 77.0 °F - 77.0 °F 100% 29.77 in 3.1 mi Calm Calm - N/A   Mostly Cloudy
5:30 AM 78 °F - 76 °F 92% 29.79 in 2 mi NNE 3.5 mph - -   Mist
5:30 AM 77.0 °F - 77.0 °F 100% 29.80 in 3.1 mi NNE 3.5 mph - N/A   Mostly Cloudy
6:00 AM 77.0 °F - 77.0 °F 100% 29.80 in 3.1 mi Calm Calm - N/A   Mostly Cloudy
6:30 AM 78.8 °F - 77.0 °F 94% 29.80 in 3.1 mi Calm Calm - N/A   Mostly Cloudy
7:00 AM 78.8 °F - 77.0 °F 94% 29.83 in 2.5 mi Calm Calm - N/A   Light Drizzle
7:30 AM 78.8 °F - 77.0 °F 94% 29.83 in 1.9 mi ENE 3.5 mph - N/A   Light Drizzle
8:00 AM 78.8 °F - 77.0 °F 94% 29.86 in 1.9 mi NE 2.3 mph - N/A   Light Drizzle
8:30 AM 80 °F - 77 °F 86% 29.86 in 1 mi NE 4.6 mph - - Rain Light Drizzle
8:30 AM 80.6 °F 87.1 °F 77.0 °F 89% 29.86 in 1.9 mi NE 4.6 mph - N/A   Light Drizzle
9:00 AM 82.4 °F 90.9 °F 77.0 °F 84% 29.86 in 1.9 mi NE 5.8 mph - N/A   Light Drizzle
9:30 AM 82.4 °F 90.9 °F 77.0 °F 84% 29.86 in 1.9 mi NNW 4.6 mph - N/A   Mostly Cloudy
10:00 AM 82.4 °F 90.9 °F 77.0 °F 84% 29.86 in 1.9 mi NW 4.6 mph - N/A   Mostly Cloudy
10:30 AM 82.4 °F 90.9 °F 77.0 °F 84% 29.86 in 1.9 mi NW 4.6 mph - N/A   Light Drizzle
11:00 AM 82.4 °F 90.9 °F 77.0 °F 84% 29.86 in 1.9 mi North 4.6 mph - N/A   Light Drizzle
11:30 AM 82 °F - 77 °F 80% 29.84 in 1 mi NNW 4.6 mph - - Rain Light Drizzle
11:30 AM 82.4 °F 90.9 °F 77.0 °F 84% 29.83 in 1.9 mi North 4.6 mph - N/A   Light Drizzle
12:00 PM 82.4 °F 90.9 °F 77.0 °F 84% 29.83 in 1.9 mi North 3.5 mph - N/A   Light Drizzle
12:30 PM 82.4 °F 90.9 °F 77.0 °F 84% 29.80 in 1.9 mi NNE 4.6 mph - N/A   Scattered Clouds
1:00 PM 84.2 °F 94.1 °F 77.0 °F 79% 29.80 in 1.9 mi North 3.5 mph - N/A   Scattered Clouds
1:30 PM 84.2 °F 94.1 °F 77.0 °F 79% 29.77 in 1.9 mi ENE 5.8 mph - N/A   Light Drizzle
2:00 PM 84.2 °F 94.1 °F 77.0 °F 79% 29.74 in 2.2 mi East 5.8 mph - N/A   Light Drizzle
2:30 PM 86 °F - 76 °F 65% 29.73 in 2 mi NE 3.5 mph - -   Haze
3:00 PM 86.0 °F 95.1 °F 75.2 °F 70% 29.71 in 3.1 mi Variable 3.5 mph - N/A   Haze
3:30 PM 86.0 °F 95.1 °F 75.2 °F 70% 29.71 in 3.1 mi Variable 3.5 mph - N/A   Haze
4:00 PM 86.0 °F 95.1 °F 75.2 °F 70% 29.71 in 3.7 mi Variable 3.5 mph - N/A   Scattered Clouds
5:00 PM 84.2 °F 92.3 °F 75.2 °F 74% 29.71 in 3.1 mi NNE 5.8 mph - N/A   Haze
5:30 PM 85 °F - 74 °F 63% 29.73 in 2 mi NE 9.2 mph - -   Haze
5:30 PM 84.2 °F 90.9 °F 73.4 °F 70% 29.74 in 2.5 mi NE 9.2 mph - N/A   Haze
6:00 PM 82.4 °F 89.5 °F 75.2 °F 79% 29.74 in 1.9 mi NW 5.8 mph - N/A Rain Rain
6:30 PM 82.4 °F 89.5 °F 75.2 °F 79% 29.77 in 1.9 mi WNW 5.8 mph - N/A Rain , Thunderstorm Light Thunderstorms and Rain
7:00 PM 82.4 °F 89.5 °F 75.2 °F 79% 29.77 in 1.9 mi NNW 6.9 mph - N/A Rain , Thunderstorm Light Thunderstorms and Rain
7:30 PM 80.6 °F 86.2 °F 75.2 °F 84% 29.80 in 1.9 mi NNW 6.9 mph - N/A Rain , Thunderstorm Light Thunderstorms and Rain
8:00 PM 80.6 °F 86.2 °F 75.2 °F 84% 29.80 in 1.9 mi WNW 3.5 mph - N/A Rain , Thunderstorm Light Thunderstorms and Rain
8:30 PM 78 °F - 76 °F 90% 29.81 in 2 mi NW 4.6 mph - - Rain , Thunderstorm Thunderstorms and Rain
8:30 PM 77.0 °F - 75.2 °F 94% 29.80 in 1.9 mi NW 4.6 mph - N/A Rain , Thunderstorm Light Thunderstorms and Rain
9:00 PM 77.0 °F - 75.2 °F 94% 29.80 in 1.9 mi West 5.8 mph - N/A Rain , Thunderstorm Light Thunderstorms and Rain
9:30 PM 77.0 °F - 75.2 °F 94% 29.80 in 1.9 mi West 5.8 mph - N/A   Drizzle
10:00 PM 77.0 °F - 75.2 °F 94% 29.83 in 2.5 mi WNW 2.3 mph - N/A   Light Drizzle
10:30 PM 77.0 °F - 75.2 °F 94% 29.83 in 2.5 mi Variable 2.3 mph - N/A   Partly Cloudy
11:00 PM 77.0 °F - 75.2 °F 94% 29.83 in 2.5 mi Variable 2.3 mph - N/A   Drizzle
11:30 PM 77 °F - 75 °F 92% 29.83 in 1 mi WNW 4.6 mph - - Rain Light Drizzle
11:30 PM 77.0 °F - 75.2 °F 94% 29.83 in 2.5 mi WNW 4.6 mph - N/A   Drizzle